�N����,����,�~����,�C��,���x,�C��,����,���ϕ���,�ő�u�ԕ���,�ő厞����,���˗�,�I�_���x,�n�����x,�ő啗���N��,DTYPE
"23/07/02","00:10",0.0,23.5,95.8,1001.5,338.5,0.7,1.1,354.8,0.00,22.8,23.1,"00:03:28",1
"23/07/02","00:20",0.0,23.4,95.9,1001.7,304.3,0.3,1.0,339.6,0.00,22.7,23.3,"00:19:52",1
"23/07/02","00:30",0.0,23.4,95.9,1001.7,335.5,0.6,1.1,334.7,0.00,22.7,22.9,"00:29:52",1
"23/07/02","00:40",0.0,23.4,95.9,1001.5,313.3,0.6,1.2,336.1,0.00,22.7,23.1,"00:30:48",1
"23/07/02","00:50",0.0,23.4,96.0,1001.5,306.2,0.8,1.2,324.4,0.00,22.8,23.3,"00:44:00",1
"23/07/02","01:00",0.0,23.3,96.1,1001.7,290.0,0.8,1.0,318.1,0.00,22.7,23.1,"00:57:36",1
"23/07/02","01:10",0.0,23.3,96.1,1001.5,326.9,1.0,1.3,324.8,0.00,22.7,23.1,"01:01:36",1
"23/07/02","01:20",0.0,23.2,96.1,1001.2,320.5,0.7,1.3,321.3,0.00,22.6,23.1,"01:10:02",1
"23/07/02","01:30",0.0,23.2,96.2,1001.5,295.2,0.7,1.1,311.7,0.00,22.6,23.2,"01:20:08",1
"23/07/02","01:40",0.0,23.1,96.2,1001.5,313.4,1.0,1.3,322.4,0.00,22.5,23.1,"01:36:32",1
"23/07/02","01:50",0.0,23.0,96.2,1001.5,314.6,0.6,1.0,327.8,0.00,22.4,23.2,"01:42:24",1
"23/07/02","02:00",0.0,22.9,96.3,1001.9,329.3,1.0,1.3,332.0,0.00,22.3,23.2,"01:58:24",1
"23/07/02","02:10",0.0,22.8,96.4,1001.7,327.0,1.1,1.6,332.9,0.00,22.2,23.1,"02:00:32",1
"23/07/02","02:20",0.0,22.7,96.5,1001.7,286.6,0.7,1.0,311.5,0.00,22.2,23.0,"02:16:00",1
"23/07/02","02:30",0.0,22.8,96.5,1001.9,314.4,1.0,1.8,319.2,0.00,22.3,23.2,"02:27:12",1
"23/07/02","02:40",0.0,22.8,96.5,1001.5,312.7,0.7,1.1,314.8,0.00,22.3,23.1,"02:31:12",1
"23/07/02","02:50",0.0,22.8,96.5,1001.5,309.9,0.7,1.1,322.1,0.00,22.3,23.1,"02:48:00",1
"23/07/02","03:00",0.0,22.8,96.5,1001.9,314.7,0.7,1.2,321.1,0.00,22.3,23.0,"02:54:08",1
"23/07/02","03:10",0.0,22.7,96.5,1001.7,284.5,0.7,1.1,324.3,0.00,22.2,23.0,"03:05:28",1
"23/07/02","03:20",0.0,22.7,96.6,1001.7,296.5,0.7,1.0,319.5,0.00,22.2,23.0,"03:11:44",1
"23/07/02","03:30",0.0,22.7,96.7,1001.9,324.8,0.8,1.2,328.7,0.00,22.2,23.0,"03:23:28",1
"23/07/02","03:40",0.0,22.8,96.7,1002.4,314.2,0.8,1.2,328.8,0.00,22.3,23.1,"03:32:00",1
"23/07/02","03:50",0.0,22.9,96.7,1002.4,314.0,0.7,1.6,337.0,0.00,22.4,23.0,"03:49:36",1
"23/07/02","04:00",0.0,22.9,96.7,1002.2,336.1,0.8,1.3,317.7,0.00,22.4,22.8,"03:59:20",1
"23/07/02","04:10",0.0,22.9,96.7,1002.2,324.5,0.6,1.3,299.1,0.00,22.4,23.0,"04:00:24",1
"23/07/02","04:20",0.0,22.9,96.8,1001.9,324.7,0.5,1.8,349.4,0.00,22.4,22.9,"04:12:40",1
"23/07/02","04:30",0.0,22.9,96.8,1002.4,319.4,0.3,0.9,306.9,0.00,22.4,23.0,"04:25:20",1
"23/07/02","04:40",0.0,22.9,96.8,1002.4,345.8,0.2,1.0,340.5,0.00,22.4,22.8,"04:33:44",1
"23/07/02","04:50",0.0,22.9,96.8,1002.4,307.0,0.2,0.6,140.9,0.00,22.4,23.0,"04:47:20",1
"23/07/02","05:00",0.0,22.9,96.8,1002.4,279.7,0.3,0.6,273.0,0.00,22.4,22.9,"04:50:08",1
"23/07/02","05:10",0.0,22.9,96.9,1002.6,300.0,0.6,1.2,305.4,0.00,22.4,23.1,"05:04:00",1
"23/07/02","05:20",0.0,22.9,96.9,1002.9,300.0,0.8,1.1,263.4,0.00,22.4,23.1,"05:10:08",1
"23/07/02","05:30",0.0,22.9,97.0,1002.9,342.5,0.8,1.3,349.6,0.00,22.4,23.0,"05:24:16",1
"23/07/02","05:40",0.0,22.8,97.0,1002.9,343.8,0.5,1.3,348.2,0.00,22.3,22.9,"05:37:52",1
"23/07/02","05:50",0.0,22.8,97.0,1003.1,332.8,0.7,1.7,329.8,0.00,22.3,22.8,"05:44:16",1
"23/07/02","06:00",0.0,22.8,97.0,1003.6,324.2,0.8,1.1,317.9,0.00,22.3,23.0,"05:50:16",1
"23/07/02","06:10",0.0,22.7,97.1,1003.6,332.7,1.5,2.6,335.7,0.00,22.3,22.9,"06:03:52",1
"23/07/02","06:20",0.0,22.8,97.2,1004.1,337.2,1.2,2.7,330.0,0.00,22.4,22.8,"06:17:52",1
"23/07/02","06:30",0.0,22.8,97.2,1003.6,350.6,1.1,2.1,355.0,0.00,22.4,23.0,"06:25:28",1
"23/07/02","06:40",0.0,23.0,97.2,1003.8,347.9,0.8,2.1,343.7,0.01,22.6,23.0,"06:32:16",1
"23/07/02","06:50",0.0,23.2,97.2,1003.8,353.8,0.7,1.2,349.8,0.03,22.8,23.0,"06:43:04",1
"23/07/02","07:00",0.0,23.3,97.2,1004.1,336.4,1.0,1.4,337.9,0.03,22.9,22.8,"06:50:08",1
"23/07/02","07:10",0.0,23.4,97.2,1003.6,330.6,1.1,2.1,345.5,0.04,23.0,23.0,"07:06:56",1
"23/07/02","07:20",0.0,23.5,97.2,1003.8,333.4,1.2,2.1,331.0,0.06,23.1,22.9,"07:12:24",1
"23/07/02","07:30",0.0,23.7,97.2,1003.6,335.6,1.1,2.2,338.3,0.06,23.3,22.8,"07:23:44",1
"23/07/02","07:40",0.0,23.6,97.1,1004.1,343.4,1.2,2.4,348.1,0.08,23.2,22.8,"07:35:36",1
"23/07/02","07:50",0.0,23.9,97.1,1004.1,345.6,1.0,2.4,341.0,0.09,23.5,22.9,"07:43:52",1
"23/07/02","08:00",0.0,23.8,97.0,1004.3,329.3,1.2,2.8,319.2,0.11,23.3,22.7,"07:58:16",1
"23/07/02","08:10",0.0,23.6,96.6,1004.5,336.3,1.6,2.8,338.1,0.11,23.1,22.8,"08:04:48",1
"23/07/02","08:20",0.0,24.1,96.4,1004.5,347.1,1.1,1.9,352.7,0.14,23.5,22.9,"08:15:28",1
"23/07/02","08:30",0.0,24.2,95.9,1004.5,330.9,1.5,2.2,348.5,0.15,23.5,22.9,"08:22:00",1
"23/07/02","08:40",0.0,24.6,95.3,1004.3,343.8,0.8,2.1,343.2,0.18,23.8,22.8,"08:34:16",1
"23/07/02","08:50",0.0,24.7,94.3,1004.1,29.2,0.7,1.9,358.0,0.18,23.8,22.8,"08:49:44",1
"23/07/02","09:00",0.0,25.3,93.6,1004.1,8.3,0.8,1.6,357.6,0.26,24.2,22.8,"08:53:52",1
"23/07/02","09:10",0.0,26.5,91.2,1004.1,23.0,0.8,2.6,333.6,0.41,25.0,22.9,"09:09:36",1
"23/07/02","09:20",0.0,27.1,86.8,1003.4,326.1,1.1,2.4,323.4,0.45,24.7,22.9,"09:11:20",1
"23/07/02","09:30",0.0,27.6,79.3,1003.8,334.3,1.5,3.5,338.0,0.49,23.7,23.1,"09:28:08",1
"23/07/02","09:40",0.0,28.4,75.1,1004.1,356.8,0.8,2.2,243.0,0.48,23.6,22.9,"09:30:48",1
"23/07/02","09:50",0.0,29.4,70.6,1004.5,47.7,0.8,2.0,40.5,0.52,23.5,22.9,"09:40:48",1
"23/07/02","10:00",0.0,30.2,67.6,1004.8,99.6,0.7,2.7,40.5,0.50,23.6,23.1,"09:51:44",1
"23/07/02","10:10",0.0,29.2,67.7,1004.5,237.4,1.1,2.6,354.7,0.28,22.7,22.9,"10:03:20",1
"23/07/02","10:20",0.0,28.0,71.5,1004.5,342.4,1.6,2.7,351.8,0.21,22.4,23.0,"10:13:04",1
"23/07/02","10:30",0.0,28.1,72.2,1003.8,328.6,1.2,2.6,353.1,0.36,22.7,22.8,"10:20:08",1
"23/07/02","10:40",0.0,28.8,71.2,1003.8,338.2,0.7,1.8,24.9,0.31,23.1,22.9,"10:32:24",1
"23/07/02","10:50",0.0,28.2,71.7,1003.8,326.5,1.3,3.3,351.2,0.18,22.6,23.1,"10:47:28",1
"23/07/02","11:00",0.0,27.9,73.1,1003.4,254.4,1.7,4.1,233.6,0.17,22.7,23.0,"10:57:28",1
"23/07/02","11:10",0.0,28.0,73.6,1003.4,242.1,1.7,3.7,238.4,0.21,22.9,23.2,"11:07:44",1
"23/07/02","11:20",0.0,28.5,72.4,1003.8,327.5,1.0,2.4,354.7,0.30,23.1,23.0,"11:18:32",1
"23/07/02","11:30",0.0,28.8,71.9,1003.6,334.8,1.7,3.3,341.5,0.41,23.3,23.1,"11:23:36",1
"23/07/02","11:40",0.0,29.9,70.2,1004.3,309.1,1.0,3.7,355.6,0.56,23.9,23.1,"11:38:40",1
"23/07/02","11:50",0.0,30.0,67.9,1004.3,338.5,1.1,3.4,233.2,0.30,23.5,23.1,"11:49:44",1
"23/07/02","12:00",0.0,29.3,69.7,1004.3,308.1,1.6,4.5,313.3,0.26,23.2,23.2,"11:56:32",1
"23/07/02","12:10",0.0,30.3,68.1,1004.1,312.9,1.2,3.5,332.8,0.55,23.8,23.1,"12:08:40",1
"23/07/02","12:20",0.0,30.1,65.9,1004.3,340.1,1.5,3.1,340.4,0.41,23.1,23.3,"12:16:00",1
"23/07/02","12:30",0.0,29.7,66.2,1004.3,331.9,1.8,3.7,309.2,0.30,22.8,23.2,"12:28:00",1
"23/07/02","12:40",0.0,30.4,68.8,1004.3,288.0,1.1,3.2,354.1,0.43,24.1,23.4,"12:33:28",1
"23/07/02","12:50",0.0,31.3,63.9,1004.3,206.5,1.2,3.4,237.0,0.54,23.7,23.2,"12:42:40",1
"23/07/02","13:00",0.0,31.1,62.4,1004.5,286.1,1.2,3.5,276.3,0.40,23.1,23.3,"12:54:24",1
"23/07/02","13:10",0.0,30.8,64.2,1004.3,310.3,1.3,4.0,346.5,0.40,23.3,23.3,"13:00:40",1
"23/07/02","13:20",0.0,31.5,61.1,1004.3,264.8,0.8,1.7,250.2,0.52,23.1,23.2,"13:14:56",1
"23/07/02","13:30",0.0,31.9,60.8,1004.5,235.0,1.7,4.5,214.5,0.56,23.4,23.4,"13:22:32",1
"23/07/02","13:40",0.0,32.0,60.0,1004.5,338.7,1.6,3.4,352.1,0.60,23.3,23.6,"13:32:08",1
"23/07/02","13:50",0.0,32.5,59.5,1004.5,314.0,1.2,2.9,348.9,0.56,23.6,23.3,"13:43:12",1
"23/07/02","14:00",0.2,32.4,58.0,1004.3,213.7,1.2,4.7,240.2,0.50,23.1,23.7,"13:55:36",1
"23/07/02","14:10",0.0,32.4,57.3,1003.8,350.5,1.5,3.1,318.4,0.51,22.9,23.5,"14:03:36",1
"23/07/02","14:20",0.0,32.6,57.5,1003.8,335.6,1.0,3.1,350.6,0.47,23.2,23.6,"14:16:00",1
"23/07/02","14:30",0.0,32.9,58.3,1003.8,254.2,1.0,2.6,256.7,0.48,23.7,23.5,"14:28:32",1
"23/07/02","14:40",0.0,32.7,58.2,1004.3,212.6,1.1,2.2,227.8,0.42,23.5,23.6,"14:37:12",1
"23/07/02","14:50",0.0,33.1,60.8,1003.8,205.5,1.5,2.9,206.0,0.50,24.6,23.7,"14:46:16",1
"23/07/02","15:00",0.0,33.1,59.2,1003.6,272.9,1.6,4.8,324.4,0.50,24.1,23.9,"14:54:08",1
"23/07/02","15:10",0.0,33.0,58.2,1003.4,255.3,1.1,3.1,231.2,0.46,23.7,23.9,"15:03:52",1
"23/07/02","15:20",0.0,32.9,60.0,1003.4,236.4,1.5,3.4,239.3,0.42,24.1,23.9,"15:13:52",1
"23/07/02","15:30",0.0,32.6,60.3,1003.1,193.4,1.8,3.5,223.9,0.41,23.9,23.8,"15:26:32",1
"23/07/02","15:40",0.0,32.8,61.2,1002.9,175.6,1.6,3.2,131.0,0.40,24.4,24.0,"15:33:20",1
"23/07/02","15:50",0.0,33.2,59.3,1002.4,170.1,1.1,2.6,187.3,0.38,24.2,24.0,"15:49:12",1
"23/07/02","16:00",0.0,33.3,60.0,1002.4,171.7,1.3,3.7,239.4,0.35,24.5,24.0,"15:50:40",1
"23/07/02","16:10",0.0,33.1,58.5,1002.4,143.2,1.0,2.1,111.0,0.25,23.9,24.0,"16:04:16",1
"23/07/02","16:20",0.0,32.6,57.9,1002.4,206.1,1.7,3.4,224.2,0.26,23.3,24.1,"16:15:12",1
"23/07/02","16:30",0.0,32.6,59.6,1002.6,224.2,1.3,3.2,219.9,0.25,23.8,24.2,"16:26:56",1
"23/07/02","16:40",0.0,32.9,58.4,1002.4,233.1,1.6,4.8,229.3,0.33,23.7,24.1,"16:39:28",1
"23/07/02","16:50",0.0,32.8,61.4,1002.6,205.1,1.8,3.5,196.2,0.25,24.4,24.1,"16:40:56",1
"23/07/02","17:00",0.0,33.0,58.7,1002.6,182.2,1.1,3.5,227.9,0.23,23.9,24.1,"16:59:52",1
"23/07/02","17:10",0.0,31.9,59.6,1002.4,215.8,2.0,4.4,217.5,0.13,23.1,24.1,"17:02:24",1
"23/07/02","17:20",0.0,31.6,60.1,1002.4,187.1,2.0,4.5,207.1,0.15,23.0,24.3,"17:19:28",1
"23/07/02","17:30",0.0,31.7,61.1,1002.6,193.2,2.3,4.2,220.6,0.14,23.3,24.3,"17:26:00",1
"23/07/02","17:40",0.0,31.9,61.4,1002.4,186.7,2.2,3.6,200.6,0.14,23.6,24.5,"17:33:44",1
"23/07/02","17:50",0.0,31.6,62.4,1002.2,189.2,1.8,3.2,183.8,0.06,23.6,24.3,"17:44:48",1
"23/07/02","18:00",0.0,31.1,62.8,1001.9,212.1,2.2,4.2,222.5,0.04,23.2,24.3,"17:55:28",1
"23/07/02","18:10",0.0,30.9,63.6,1001.9,218.2,2.3,4.3,213.9,0.05,23.2,24.4,"18:00:24",1
"23/07/02","18:20",0.0,30.9,64.4,1001.5,236.7,1.5,3.2,226.0,0.05,23.4,24.5,"18:14:16",1
"23/07/02","18:30",0.0,31.1,64.5,1001.9,249.3,1.0,2.6,243.5,0.05,23.7,24.3,"18:28:48",1
"23/07/02","18:40",0.0,30.8,65.0,1002.2,255.8,1.1,2.6,319.6,0.03,23.5,24.5,"18:39:20",1
"23/07/02","18:50",0.0,30.3,66.2,1001.5,259.6,1.1,2.6,220.9,0.01,23.3,24.3,"18:45:44",1
"23/07/02","19:00",0.0,30.0,67.2,1001.2,284.2,0.6,2.0,348.3,0.01,23.3,24.3,"18:56:48",1
"23/07/02","19:10",0.0,30.1,68.8,1001.5,349.0,1.0,2.2,338.5,0.01,23.8,24.4,"19:02:40",1
"23/07/02","19:20",0.0,29.6,70.4,1001.5,346.5,1.2,2.4,345.7,0.01,23.7,24.4,"19:13:52",1
"23/07/02","19:30",0.0,29.1,72.7,1001.5,322.2,1.1,2.6,345.0,0.00,23.7,24.3,"19:21:36",1
"23/07/02","19:40",0.0,28.7,75.1,1001.2,324.2,1.1,2.2,336.8,0.00,23.9,24.3,"19:33:44",1
"23/07/02","19:50",0.0,28.3,76.6,1001.9,339.1,1.2,2.2,339.9,0.00,23.8,24.2,"19:40:02",1
"23/07/02","20:00",0.0,27.9,77.9,1002.2,283.5,0.7,2.0,339.3,0.00,23.7,24.4,"19:50:08",1
"23/07/02","20:10",0.0,27.5,79.1,1002.2,325.7,1.1,1.8,336.6,0.00,23.6,24.3,"20:05:04",1
"23/07/02","20:20",0.0,27.2,80.2,1002.2,302.5,0.8,1.3,344.3,0.00,23.5,24.2,"20:18:24",1
"23/07/02","20:30",0.0,27.0,81.3,1002.4,325.1,1.0,1.8,335.0,0.00,23.6,24.4,"20:27:36",1
"23/07/02","20:40",0.0,26.6,82.1,1002.6,316.6,0.5,1.1,342.3,0.00,23.3,24.3,"20:30:08",1
"23/07/02","20:50",0.0,26.2,83.2,1002.9,259.8,0.8,1.4,259.7,0.00,23.2,24.4,"20:46:40",1
"23/07/02","21:00",0.0,26.1,84.1,1003.1,285.6,0.8,1.9,329.5,0.00,23.2,24.2,"20:52:16",1
"23/07/02","21:10",0.0,25.9,84.7,1003.1,280.9,0.8,1.4,258.2,0.00,23.2,24.2,"21:07:24",1
"23/07/02","21:20",0.0,25.8,85.4,1003.4,313.5,1.1,1.8,341.7,0.00,23.2,24.3,"21:14:08",1
"23/07/02","21:30",0.0,25.6,86.0,1003.4,338.2,1.3,2.0,349.4,0.00,23.1,24.3,"21:24:40",1
"23/07/02","21:40",0.0,25.3,86.6,1003.4,302.0,1.0,1.3,317.5,0.00,22.9,24.2,"21:33:52",1
"23/07/02","21:50",0.0,25.1,87.2,1003.4,305.3,0.8,1.4,324.4,0.00,22.9,24.1,"21:40:48",1
"23/07/02","22:00",0.0,25.0,87.7,1003.6,325.5,1.6,2.5,332.3,0.00,22.9,24.1,"21:59:20",1
"23/07/02","22:10",0.0,24.9,87.9,1003.6,332.5,1.6,2.6,341.0,0.00,22.8,24.1,"22:04:32",1
"23/07/02","22:20",0.0,24.7,88.2,1003.6,315.9,1.1,1.8,340.2,0.00,22.7,24.2,"22:10:32",1
"23/07/02","22:30",0.0,24.6,88.4,1003.6,342.2,0.8,1.9,280.5,0.00,22.6,24.1,"22:22:16",1
"23/07/02","22:40",0.0,24.6,88.8,1003.8,340.7,1.0,1.8,341.5,0.00,22.7,24.1,"22:36:08",1
"23/07/02","22:50",0.0,24.3,89.2,1004.1,312.3,0.8,1.4,332.6,0.00,22.4,24.0,"22:41:12",1
"23/07/02","23:00",0.0,24.1,89.6,1004.5,303.8,0.8,1.7,332.6,0.00,22.3,24.0,"22:57:36",1
"23/07/02","23:10",0.0,24.0,89.8,1004.1,279.9,0.7,1.2,252.0,0.00,22.3,24.1,"23:00:32",1
"23/07/02","23:20",0.0,24.0,90.1,1004.1,298.6,0.8,1.8,343.1,0.00,22.3,23.7,"23:19:20",1
"23/07/02","23:30",0.0,23.9,90.3,1004.5,329.0,0.8,1.3,335.4,0.00,22.3,24.0,"23:20:24",1
"23/07/02","23:40",0.0,23.7,90.5,1004.3,300.2,0.3,0.9,331.6,0.00,22.1,24.0,"23:30:08",1
"23/07/02","23:50",0.0,23.7,90.8,1004.5,327.6,0.8,1.7,334.4,0.00,22.1,23.8,"23:46:48",1
"23/07/02","24:00",0.0,23.8,91.1,1004.5,334.2,1.1,1.8,307.7,0.00,22.3,23.9,"23:59:44",1
